{"data":{"norad_id":57392,"intl_designator":"2023-100G","name":"LEO 3","alt_names":[],"object_type":"PAYLOAD","status":"ACTIVE","operator":null,"country":"CA","launch_date":"2023-07-18","launch_site_code":"RLLB","launch_vehicle":null,"mission":null,"orbit_class":"UNKNOWN","rcs_meters":null,"size_class":null,"mass_kg":null,"dimensions":null,"purposes":[],"wikipedia_slug":null,"has_3d_model":false,"image_url":null,"decayed_at":null,"tle_current":{"epoch":"2026-05-25T01:59:02.743296Z","epoch_age_seconds":64088,"freshness":"FRESH","line1":"1 57392U 23100G   26145.08267064 -.00000027  00000+0  20659-4 0  9998","line2":"2 57392  99.5608 269.6222 0019083  76.4895 283.8375 13.68419980142488","mean_motion":13.6841998,"eccentricity":0.0019083,"inclination_deg":99.5608,"raan_deg":269.6222,"arg_perigee_deg":76.4895,"mean_anomaly_deg":283.8375,"bstar":2.0659e-5,"rev_number":14248,"period_min":105.23085171557,"perigee_km":991.15922557172,"apogee_km":1019.338656354,"semimajor_km":7383.3859409629,"source":"CELESTRAK","updated_at":"2026-05-25T13:38:00.038960Z"}}}